Temp
-7 -7 -7 -7 -7 -7 -8 -8 -7 -6 -6 -5 -6 -6 -6 -6 -7 -7 -7 -7 -6 -7 -7 -7 -7 -7 -7 -7 -7 -7 -7 -7 -7
-7 -7 -7 -7 -7 -7 -8 -7 -7 -7 -6 -6 -6 -6 -7 -6 -6 -6 -7 -7 -7 -7 -7 -7 -7 -7 -7 -7 -7 -7 -7 -7 -7
-7 -7 -7 -7 -8 -8 -8 -7 -7 -7 -6 -6 -7 -6 -5 -6 -7 -6 -7 -7 -7 -7 -7 -7 -7 -7 -7 -6 -7 -7 -7 -7 -7
-7 -7 -7 -8 -8 -8 -7 -7 -7 -7 -7 -6 -8 -7 -5 -6 -7 -7 -7 -7 -7 -8 -7 -7 -7 -7 -7 -7 -7 -7 -7 -8 -7
-8 -8 -8 -8 -8 -8 -7 -7 -6 -6 -6 -9 -8 -7 -7 -5 -6 -6 -7 -7 -7 -7 -7 -7 -7 -7 -7 -8 -7 -8 -8 -8 -8
-8 -8 -8 -8 -8 -7 -7 -7 -7 -6 -5 -6 -7 -6 -6 -5 -5 -6 -7 -7 -7 -7 -7 -7 -7 -7 -8 -8 -8 -8 -8 -8 -8
-8 -8 -8 -8 -8 -8 -8 -8 -7 -7 -7 -7 -7 -6 -6 -5 -5 -6 -7 -7 -8 -7 -7 -7 -7 -7 -7 -7 -7 -8 -7 -7 -7
-9 -9 -9 -9 -8 -8 -8 -8 -7 -7 -7 -8 -8 -7 -7 -6 -6 -6 -7 -7 -7 -7 -7 -7 -7 -7 -7 -7 -7 -7 -7 -7 -7
-9 -9 -9 -9 -8 -8 -9 -8 -8 -8 -7 -7 -8 -8 -8 -8 -7 -7 -7 -7 -7 -7 -7 -7 -7 -7 -7 -7 -7 -7 -7 -7 -7
-9 -9 -9 -9 -8 -8 -9 -9 -10 -9 -8 -8 -8 -9 -9 -9 -9 -9 -8 -8 -8 -8 -8 -7 -7 -7 -7 -7 -7 -7 -7 -7 -7
-10 -10 -10 -10 -10 -10 -10 -10 -10 -10 -10 -9 -9 -9 -9 -9 -9 -9 -8 -9 -9 -8 -8 -8 -8 -8 -8 -8 -8 -8 -8 -8 -8
-11 -11 -11 -10 -11 -11 -11 -10 -10 -10 -11 -11 -10 -9 -9 -9 -9 -8 -9 -9 -9 -9 -8 -8 -9 -8 -8 -8 -8 -8 -8 -8 -8
-11 -11 -11 -11 -11 -11 -11 -11 -11 -11 -10 -9 -10 -9 -10 -9 -9 -9 -9 -9 -9 -9 -9 -9 -9 -9 -9 -9 -9 -9 -8 -7 -7
-11 -11 -11 -11 -11 -12 -11 -11 -11 -11 -10 -10 -10 -10 -9 -9 -9 -9 -9 -9 -9 -8 -9 -9 -10 -8 -10 -9 -8 -7 -7 -8 -7
-11 -11 -11 -11 -11 -12 -11 -11 -11 -11 -11 -10 -10 -10 -10 -10 -10 -9 -8 -9 -9 -9 -9 -9 -9 -9 -9 -8 -8 -7 -8 -7 -7
-10 -10 -10 -10 -10 -11 -11 -11 -11 -11 -11 -10 -9 -9 -9 -9 -9 -9 -8 -8 -8 -9 -9 -9 -9 -9 -9 -8 -8 -7 -7 -8 -9
-11 -11 -11 -11 -11 -11 -10 -11 -11 -11 -11 -11 -10 -9 -9 -9 -9 -9 -8 -8 -8 -8 -9 -9 -9 -9 -9 -8 -8 -7 -7 -7 -7
-11 -11 -12 -11 -11 -11 -11 -11 -10 -11 -11 -10 -10 -10 -9 -9 -9 -9 -9 -8 -8 -8 -9 -9 -9 -9 -9 -9 -9 -9 -8 -8 -7
-11 -12 -12 -12 -11 -11 -11 -11 -11 -11 -11 -10 -10 -10 -9 -10 -9 -9 -9 -9 -9 -9 -9 -9 -9 -9 -9 -9 -9 -9 -9 -9 -9
-11 -12 -12 -12 -11 -11 -11 -11 -11 -11 -11 -11 -10 -9 -9 -9 -9 -9 -9 -9 -9 -9 -9 -9 -9 -9 -9 -9 -9 -9 -9 -9 -9
Height
5933 5934 5934 5935 5935 5935 5934 5931 5928 5928 5927 5928 5925 5925 5926 5925 5921 5920 5919 5921 5922 5924 5925 5926 5927 5928 5929 5929 5930 5931 5930 5930 5930
5931 5932 5931 5932 5932 5932 5932 5928 5926 5925 5925 5927 5928 5926 5925 5925 5923 5918 5918 5918 5920 5921 5923 5924 5924 5925 5926 5926 5927 5928 5927 5927 5928
5927 5928 5928 5929 5929 5929 5928 5927 5925 5920 5921 5924 5925 5926 5923 5920 5916 5919 5917 5916 5917 5918 5921 5921 5922 5922 5923 5923 5924 5925 5924 5925 5927
5925 5925 5926 5926 5926 5926 5924 5921 5921 5917 5916 5916 5919 5923 5920 5922 5912 5918 5915 5914 5915 5916 5917 5919 5920 5921 5921 5921 5921 5921 5921 5923 5923
5921 5921 5920 5921 5923 5922 5920 5918 5915 5913 5908 5902 5915 5916 5917 5915 5912 5915 5912 5912 5913 5915 5915 5916 5918 5918 5919 5919 5919 5919 5919 5922 5922
5915 5915 5915 5916 5916 5916 5916 5911 5910 5907 5899 5901 5912 5916 5915 5915 5915 5911 5909 5909 5911 5913 5915 5916 5916 5917 5917 5918 5918 5918 5918 5919 5920
5911 5913 5912 5913 5911 5909 5913 5916 5913 5908 5908 5903 5910 5913 5914 5913 5910 5907 5906 5906 5908 5911 5913 5915 5915 5917 5917 5917 5917 5917 5918 5918 5919
5907 5907 5909 5909 5909 5909 5911 5915 5914 5912 5909 5909 5908 5909 5909 5908 5907 5905 5903 5904 5906 5906 5909 5912 5913 5915 5915 5915 5915 5915 5915 5916 5916
5903 5902 5903 5903 5905 5904 5903 5904 5906 5908 5907 5906 5903 5903 5900 5902 5901 5903 5903 5903 5903 5904 5906 5908 5910 5911 5912 5912 5912 5911 5911 5912 5912
5894 5893 5893 5895 5896 5899 5899 5897 5897 5896 5897 5896 5896 5896 5893 5884 5889 5896 5898 5899 5902 5903 5904 5904 5906 5907 5907 5907 5907 5908 5908 5908 5908
5885 5884 5884 5884 5885 5886 5889 5887 5889 5889 5888 5890 5892 5891 5888 5884 5888 5891 5894 5896 5897 5899 5900 5900 5900 5902 5903 5903 5902 5902 5903 5903 5903
5878 5876 5875 5874 5875 5876 5878 5878 5879 5879 5882 5884 5883 5883 5882 5881 5882 5887 5890 5890 5890 5892 5894 5896 5895 5895 5896 5897 5897 5897 5898 5899 5900
5869 5870 5869 5868 5867 5869 5870 5872 5871 5872 5871 5874 5874 5876 5876 5875 5875 5878 5881 5883 5885 5887 5887 5889 5889 5889 5891 5891 5893 5893 5895 5896 5896
5857 5856 5856 5856 5857 5857 5857 5859 5859 5860 5861 5861 5862 5863 5864 5865 5866 5868 5870 5873 5876 5876 5878 5878 5880 5880 5880 5881 5883 5882 5882 5884 5885
5846 5844 5843 5842 5842 5844 5844 5845 5845 5845 5846 5848 5851 5849 5850 5851 5852 5854 5858 5861 5864 5866 5867 5868 5870 5870 5868 5868 5868 5872 5873 5875 5876
5830 5830 5831 5830 5827 5827 5828 5830 5830 5830 5830 5831 5834 5837 5838 5840 5841 5841 5842 5847 5849 5851 5853 5855 5858 5859 5863 5863 5862 5860 5857 5857 5857
5814 5813 5812 5810 5811 5810 5810 5813 5815 5815 5817 5818 5819 5823 5825 5826 5827 5828 5829 5831 5834 5836 5837 5842 5845 5848 5851 5850 5842 5844 5843 5830 5817
5802 5801 5800 5796 5794 5791 5790 5788 5792 5796 5800 5802 5804 5806 5810 5812 5813 5814 5816 5818 5819 5821 5824 5829 5833 5836 5836 5836 5833 5825 5831 5834 5829
5788 5784 5782 5779 5776 5774 5775 5773 5773 5775 5779 5781 5784 5788 5794 5797 5800 5801 5804 5806 5807 5808 5810 5815 5819 5823 5825 5827 5829 5829 5829 5826 5824
5773 5769 5765 5762 5760 5757 5756 5756 5757 5759 5760 5762 5766 5771 5775 5780 5785 5787 5791 5794 5795 5796 5798 5801 5807 5810 5813 5818 5823 5823 5825 5826 5827
Wind_Speed
10 11 16 17 15 15 23 26 17 15 15 18 12 9 12 10 9 10 10 11 13 12 12 11 12 12 11 11 9 10 10 10 11
14 18 16 12 16 17 21 25 21 17 19 18 17 14 11 12 10 7 9 11 13 12 11 10 11 10 9 7 8 8 9 10 10
16 15 14 16 15 16 26 24 21 24 20 16 20 21 16 11 4 5 5 8 11 12 11 10 8 8 10 9 9 9 9 7 7
17 16 15 16 18 21 27 26 27 19 26 30 25 24 28 15 8 6 4 3 5 8 8 8 7 8 9 11 12 12 10 8 6
12 11 16 19 21 28 30 29 29 23 33 41 23 24 19 16 8 10 6 5 5 7 8 7 3 3 4 5 7 10 8 8 5
14 18 21 25 28 29 24 20 24 15 13 18 20 24 23 21 18 10 8 8 8 8 9 9 7 4 2 1 2 2 4 7 5
26 26 28 23 25 23 19 19 20 12 7 14 21 21 22 24 21 13 9 10 11 11 10 11 9 6 5 4 4 4 3 3 2
32 31 29 31 29 31 31 26 19 12 10 13 17 17 19 21 19 16 12 12 13 13 14 13 12 10 8 6 5 3 4 4 3
34 38 34 26 29 28 27 20 24 19 18 19 14 14 19 21 18 15 14 12 14 15 14 14 13 12 11 10 10 9 8 7 7
44 46 44 38 41 35 29 18 22 22 19 19 20 24 33 33 24 18 17 16 14 15 16 16 15 14 14 14 13 12 12 12 11
44 46 45 47 48 46 42 30 31 25 17 12 16 24 33 39 22 18 21 19 15 20 20 19 20 19 19 18 18 17 18 17 17
39 41 39 38 42 39 33 31 23 23 23 22 24 29 33 35 32 30 27 27 24 26 27 25 22 23 24 24 23 22 23 22 21
45 44 48 48 47 46 42 37 35 42 38 41 35 30 34 38 37 36 33 33 36 32 31 30 31 26 27 27 25 27 26 25 26
43 45 47 49 50 49 47 45 40 38 40 40 39 44 41 42 43 41 40 39 39 39 36 35 36 36 37 31 33 35 35 35 34
40 41 44 47 49 46 45 44 40 42 41 36 42 45 46 49 49 49 45 42 44 47 45 43 42 46 47 36 37 43 44 42 42
46 47 48 48 50 50 48 46 46 46 44 44 41 43 45 49 51 52 52 45 47 48 50 49 48 46 44 45 49 50 55 52 55
49 50 50 52 52 54 56 54 52 51 52 50 49 45 45 45 47 47 50 48 45 48 51 52 49 49 49 50 58 62 66 46 71
45 46 46 50 54 56 57 59 57 54 51 52 53 48 43 46 46 44 44 46 47 46 49 50 50 49 52 55 61 52 40 48 44
48 47 48 51 49 50 51 53 54 53 53 52 50 50 46 40 42 45 47 46 47 47 47 47 46 47 51 51 46 47 47 48 40
44 49 51 48 47 50 53 54 53 51 50 50 54 51 51 50 49 43 48 48 45 41 42 44 42 44 47 47 45 45 39 37 35
Wind_Direction
327 337 336 338 358 6 348 334 319 306 297 284 276 269 275 255 241 240 243 254 254 251 246 247 252 254 256 257 260 266 273 278 277
311 318 329 335 344 345 331 329 336 309 294 285 281 267 255 258 257 253 241 240 252 252 250 244 246 254 261 256 267 274 271 264 268
304 316 324 322 330 319 313 318 307 314 305 295 279 267 259 243 210 240 239 236 244 249 249 254 258 267 260 258 256 255 258 274 259
307 311 296 294 299 295 310 314 329 300 290 275 267 262 262 239 188 220 215 214 231 240 240 237 244 256 264 257 253 256 246 251 252
272 270 273 281 291 304 311 314 320 309 284 270 236 248 243 239 202 212 207 210 205 209 216 226 229 256 286 272 250 247 249 230 244
258 263 269 288 307 309 321 342 352 314 243 183 226 240 243 237 217 196 202 194 188 184 184 183 191 200 189 207 184 172 179 181 193
256 266 273 295 308 309 321 336 334 330 280 187 232 240 242 234 219 195 189 197 191 189 193 195 201 212 200 204 187 155 167 154 178
258 270 278 287 298 297 297 301 303 306 274 221 220 231 238 239 227 210 193 192 205 199 199 201 210 225 231 218 205 210 199 208 242
273 277 278 282 285 305 298 297 285 270 267 230 229 244 236 228 219 224 221 211 208 207 211 211 210 215 222 223 221 214 217 223 233
271 273 276 272 280 281 278 293 302 267 233 235 249 252 250 228 202 212 213 216 225 226 229 227 230 230 225 226 230 231 232 233 237
273 276 283 285 286 291 289 299 297 253 212 229 254 258 263 279 241 214 229 233 234 239 241 236 237 237 244 242 240 240 244 247 249
272 276 279 283 288 292 295 288 272 239 244 239 276 277 280 282 273 273 264 239 238 243 242 239 241 245 247 251 255 261 263 263 263
270 268 268 275 282 281 281 281 279 281 280 273 275 256 255 262 259 258 258 249 247 243 242 249 248 243 253 260 269 268 267 267 269
271 272 271 272 276 278 277 278 278 268 262 259 251 255 253 254 254 257 252 249 242 244 248 251 255 252 245 247 256 254 256 258 258
268 269 269 270 269 269 271 274 272 267 267 256 244 242 244 250 252 257 256 249 245 242 243 245 252 255 264 252 259 266 266 261 261
266 266 264 263 265 265 266 264 268 271 273 267 257 247 246 252 258 260 262 258 252 247 243 244 247 253 256 262 264 263 263 258 255
279 281 282 281 277 271 270 266 262 261 264 268 268 264 253 251 251 255 259 259 255 250 248 247 248 251 256 258 256 256 258 276 245
283 279 277 279 279 278 277 274 270 267 267 262 260 261 257 250 249 252 258 259 257 254 251 250 249 250 254 259 269 288 290 286 288
288 281 281 283 277 273 271 273 276 275 271 262 261 257 253 253 253 253 253 255 255 256 257 253 251 251 252 258 268 274 281 292 306
286 278 279 280 278 274 273 272 271 272 270 264 258 255 252 250 252 253 250 250 250 255 259 259 254 252 252 254 259 266 274 289 295